sat.trackr.live / text

‹ back to catalog

STARLINK-36978

NORAD 68960 · 2026-099K

PAYLOAD ACTIVE UNKNOWN

§ Identity

Operator
Country
US
Launch date
2026-05-01
Launch site
AFETR
Launch vehicle
Mass (kg)
RCS (m²)

Purposes: comms

External: N2YO · Heavens-Above · Gunter

§ Orbital elements

Epoch: 2026-09-19T20:22:39.139968Z

Period
93.85 min
Inclination
53.1589°
Eccentricity
0.0001422
Mean motion
15.34404773 rev/d
Perigee alt
461.7 km
Apogee alt
463.7 km
Semi-major
6,840.8 km
B*
4.4933e-4
RAAN
78.9105°
Arg perigee
103.0882°
Mean anomaly
257.0280°
Rev number
2,180

§ Raw data

STARLINK-369781 68960U 26099K   26262.84906412  .00014837  00000+0  44933-3 0  99952 68960  53.1589  78.9105 0001422 103.0882 257.0280 15.34404773 21806

JSON: /api/v1/satellites/68960 · /tle

For live sub-satellite position, see the globe view (requires WebGL).

§ Visibility from observer

Set your observer location to see the next 7 days of passes ≥ 10°. The values pass through the URL so the page stays shareable.

No JS? Fill the form by hand. The geolocation button needs JavaScript.